User: anonymous   Login
Location: Unspecified
(0.0000°N, 0.0000°E)
Time: 00:20:39
(UTC+01:00)
Language:

Cosmos 1758 - Orbit

View from above orbital plane
View from above orbital plane
View from above satellite
View from above satellite

Ground track
Ground track

The orbit data is extracted from the following two-line orbital elements,

1 16791U 86046A   16037.39715228  .00001705  00000-0  12193-3 0  9994
2 16791  82.4727 155.8862 0016418 343.5715  16.4976 15.03754618611000
Epoch (UTC): 06 February 2016 09:31:53
Eccentricity: 0.0016418
inclination: 82.4727°
perigee height: 544 km
apogee height: 567 km
right ascension of ascending node: 155.8862°
argument of perigee: 343.5715°
revolutions per day: 15.03754618
mean anomaly at epoch: 16.4976°
orbit number at epoch: 61100

The dashed part of the orbit path shows where the satellite is in the earth's shadow,  

DLR